Wind_Speed
27 27 26 27 29 31 30 27 26 27 27 28 27 25 23 22 23 24 24 24 24 23 22 20 20 20 20 20 20 21 20 18 16 16 17 17 18 20 20 20 24 27 22 20 22 16 12 17 21 24 24 24
25 26 28 30 31 33 33 30 27 27 28 29 29 28 26 25 25 25 25 25 25 26 25 23 22 21 20 20 20 22 22 19 16 15 17 17 18 20 21 20 23 28 26 22 23 17 12 15 20 24 26 26
25 26 29 32 33 34 33 32 30 27 27 29 29 29 29 27 26 26 26 26 26 27 26 25 24 23 22 21 20 21 22 22 19 16 16 17 18 20 21 21 22 27 27 25 24 20 14 14 18 23 27 27
26 27 28 31 33 34 34 33 32 29 28 28 30 31 30 29 29 28 28 27 27 27 27 27 27 25 25 24 22 22 23 23 22 20 17 17 17 19 21 22 23 26 27 27 25 23 17 14 16 21 27 29
27 27 27 29 31 33 34 33 33 32 30 29 30 31 31 31 31 30 29 29 29 29 29 30 30 29 27 26 24 24 24 24 24 23 21 18 18 20 22 24 25 25 27 28 28 26 20 15 15 18 25 30
27 27 27 28 30 32 34 34 34 34 33 31 30 30 31 32 32 31 31 31 30 31 32 32 32 32 31 29 28 27 26 25 25 24 24 22 19 20 23 24 25 26 27 30 30 28 23 18 17 18 21 27
27 27 27 28 29 31 33 34 35 35 36 34 33 32 33 33 32 32 32 32 31 32 34 35 35 34 34 33 32 31 30 28 27 25 25 25 23 22 23 24 26 28 30 32 32 30 28 23 20 19 19 23
25 25 25 26 27 29 31 33 34 35 37 37 37 36 35 34 33 32 32 32 32 32 33 35 37 37 36 35 34 34 32 30 29 28 26 26 27 26 25 24 25 29 31 34 33 31 30 26 21 20 20 21
22 22 23 24 24 26 27 30 33 35 37 39 39 39 38 37 36 35 33 31 32 33 34 35 37 38 38 37 35 34 33 32 32 31 29 28 27 28 28 27 26 28 32 34 33 31 31 28 24 21 22 22
20 20 21 22 22 23 24 26 29 33 36 39 41 41 41 40 40 40 38 35 34 33 33 35 38 39 39 38 37 35 35 34 34 33 32 30 30 30 30 30 29 29 31 33 32 32 34 32 27 23 23 25
20 20 20 20 21 22 22 23 25 27 30 35 39 41 42 42 42 41 41 40 39 37 34 34 35 36 37 37 37 37 37 36 35 35 35 35 35 34 32 32 32 32 32 33 32 32 34 33 28 26 25 27
22 21 21 21 21 21 22 22 23 24 25 27 30 34 38 40 41 42 42 42 42 42 40 38 35 33 35 37 37 38 38 38 38 37 37 37 38 38 36 33 33 34 34 34 33 32 33 33 29 26 27 29
24 24 23 23 23 23 23 23 23 23 24 24 25 26 28 31 34 37 40 42 43 44 45 45 42 38 35 36 38 39 40 40 40 40 39 38 39 40 39 37 35 35 36 36 35 34 34 34 31 27 27 30
26 26 26 26 26 26 25 25 25 25 25 25 26 26 27 27 28 30 32 35 38 40 42 44 46 45 43 39 38 38 40 42 42 42 42 41 41 41 42 41 39 38 38 38 37 37 37 36 33 30 28 29
30 29 29 28 28 28 28 29 29 29 29 29 29 29 29 30 30 30 31 32 33 34 36 38 41 43 46 46 45 42 40 41 42 42 43 43 44 43 43 44 43 42 40 40 39 38 38 38 36 33 30 29
33 33 33 33 32 31 31 31 31 32 32 32 32 33 33 34 35 35 35 36 36 36 36 37 38 39 42 45 47 48 47 46 44 43 42 44 46 45 45 45 46 46 44 43 42 40 40 39 38 36 33 30
36 36 36 36 36 36 36 36 36 36 36 36 36 37 38 39 40 41 42 43 43 43 43 43 42 42 43 44 45 47 49 51 51 48 45 45 46 46 46 47 48 48 47 45 43 42 41 41 40 38 37 35
38 38 39 39 39 39 39 40 40 42 42 43 44 44 45 45 45 46 48 50 51 52 52 52 51 49 48 48 48 48 49 51 53 54 52 49 48 47 46 45 47 49 49 47 45 44 43 42 42 40 39 38
42 42 43 44 44 45 44 45 45 47 48 50 51 52 52 53 53 53 53 54 56 57 58 58 58 57 56 54 52 52 52 53 53 55 57 57 55 52 50 47 46 49 51 49 47 46 45 43 43 42 41 40
49 50 51 52 52 52 52 53 53 54 55 56 58 59 60 60 60 60 61 61 62 63 63 63 63 63 63 62 60 58 56 56 56 55 56 59 61 59 57 54 50 48 49 52 51 49 47 45 44 44 43 42
54 56 58 60 61 62 62 62 63 63 62 63 64 65 66 67 66 66 67 68 68 69 69 69 69 69 69 69 68 65 61 59 59 59 57 58 60 62 62 60 57 52 49 50 53 53 51 48 47 46 45 44
59 61 62 64 65 66 67 68 69 69 69 68 68 68 69 70 71 72 72 71 71 71 72 73 73 73 73 73 73 71 66 63 61 61 62 60 59 62 64 63 61 59 56 51 50 53 53 51 50 49 48 47
64 65 66 66 67 68 69 70 71 71 72 72 72 72 72 73 75 77 76 73 71 70 70 71 72 72 72 73 72 71 68 65 63 63 64 64 62 61 63 65 64 62 62 58 53 52 52 53 53 52 51 50
67 69 70 70 71 72 73 73 73 74 75 76 76 76 76 76 77 76 73 70 68 67 67 67 68 69 69 69 68 68 67 65 64 64 65 66 67 64 63 65 65 64 63 62 59 56 54 53 54 55 55 54
72 74 75 75 76 77 77 78 79 80 80 78 77 75 74 73 71 69 66 65 64 63 63 63 64 64 64 63 63 64 64 64 64 64 65 66 69 69 66 65 65 65 65 64 62 61 59 57 55 55 56 56
75 76 77 78 79 81 81 81 80 78 76 73 71 69 67 65 63 62 60 59 58 58 58 58 59 59 58 58 59 60 61 62 63 64 65 66 69 72 71 69 67 65 66 66 65 63 62 62 60 57 56 55
76 76 77 76 76 75 74 72 69 67 65 64 64 63 61 59 57 55 53 52 52 52 52 53 53 53 53 54 55 56 58 59 61 63 64 66 68 72 74 73 71 68 67 67 66 63 62 63 63 62 62 58
73 72 70 67 64 63 61 61 59 57 57 57 57 56 54 52 50 49 48 47 46 47 48 48 49 49 49 50 51 53 55 56 58 60 62 64 66 70 74 75 74 72 70 68 66 64 62 62 61 62 66 65
66 64 62 60 58 56 55 54 53 52 52 52 53 53 49 44 42 42 43 42 42 43 45 45 45 45 45 47 49 50 51 52 54 56 58 60 63 66 71 74 75 75 73 71 69 66 64 62 61 60 62 64
58 58 57 56 55 55 53 52 50 49 49 49 50 49 45 40 38 39 39 39 40 41 42 42 43 43 43 44 46 46 46 46 48 50 53 55 58 62 65 69 73 74 74 72 71 69 67 64 63 61 59 58
51 51 52 53 52 52 52 51 50 48 48 48 48 46 43 40 38 37 36 36 37 39 40 40 41 42 42 42 43 43 43 42 43 45 48 50 52 56 59 63 68 71 71 71 71 70 68 67 65 63 62 60
Wind_Direction
249 243 233 232 238 240 240 245 250 252 251 250 250 249 246 245 245 243 242 240 241 241 240 241 245 251 255 257 259 260 258 250 249 252 247 237 234 236 240 248 259 263 256 255 259 252 243 234 222 219 219 222
245 238 229 229 235 239 243 248 251 252 252 250 249 249 248 246 246 245 243 240 240 240 240 238 239 243 248 252 258 263 263 256 252 253 252 241 236 236 234 239 253 261 263 258 257 256 245 238 227 220 219 221
245 238 230 228 233 238 243 246 247 250 251 249 249 250 249 247 246 245 244 242 240 239 241 241 238 238 242 246 252 259 263 262 259 256 253 245 240 240 234 236 247 258 265 258 253 257 250 239 231 223 222 221
248 243 236 231 233 237 241 244 245 245 245 248 250 250 249 247 248 248 245 243 241 241 243 242 241 240 241 243 246 251 258 262 262 260 258 249 243 243 238 236 241 250 261 259 254 257 251 239 234 226 225 224
249 247 242 237 235 236 239 241 242 240 240 245 246 247 248 248 250 249 245 244 244 246 245 243 243 243 243 244 245 247 253 258 260 260 260 255 245 242 240 238 239 244 254 257 255 256 252 242 240 233 227 227
249 248 246 243 240 238 238 239 239 238 238 242 243 243 245 247 248 247 246 246 247 248 246 245 245 245 245 246 248 248 249 252 256 256 257 258 252 242 240 240 238 236 242 250 252 254 255 251 248 241 231 229
247 248 248 247 246 243 240 239 238 236 236 238 240 241 243 245 244 244 247 248 249 250 248 247 248 247 245 244 246 248 246 246 250 252 253 256 256 249 243 241 241 237 237 244 249 252 257 259 253 245 235 230
248 248 248 248 249 247 245 242 238 236 236 237 239 240 241 242 243 243 245 247 249 250 249 249 249 247 245 243 241 243 245 245 245 247 249 252 255 256 250 242 242 243 241 243 246 250 255 258 253 246 240 233
251 250 250 250 251 251 249 247 243 239 238 239 240 241 241 242 244 243 242 244 247 248 247 249 249 246 243 242 240 240 244 245 244 245 246 248 252 256 256 247 242 243 245 246 246 249 253 255 253 248 245 239
255 254 253 253 253 254 253 251 249 245 243 242 242 243 243 244 244 244 243 241 242 244 244 244 245 245 243 241 240 240 242 244 244 244 245 246 247 249 253 253 247 243 245 247 247 247 252 255 254 250 246 243
255 256 256 256 256 257 257 256 255 252 249 247 246 246 246 246 246 246 246 244 242 242 244 242 238 239 242 243 242 241 241 242 242 243 244 246 246 245 246 251 252 248 245 247 247 245 250 254 254 251 248 245
252 252 253 254 255 256 257 258 258 258 256 253 251 249 249 249 248 248 248 249 246 245 247 250 246 238 237 239 241 242 242 242 241 241 243 245 247 247 244 246 250 252 250 248 248 246 247 251 252 250 248 247
248 248 249 249 251 251 252 253 253 255 257 257 256 255 253 252 250 249 249 250 251 250 250 252 255 253 246 240 237 237 240 244 244 242 242 244 247 248 248 246 246 249 251 250 249 248 248 249 248 246 246 248
250 248 247 246 246 246 246 247 246 246 248 251 255 257 258 258 256 254 253 252 253 254 254 254 255 257 258 256 249 241 238 239 242 244 243 243 245 248 250 249 247 246 249 250 249 249 249 250 248 245 244 247
258 255 253 250 248 246 245 244 244 243 243 244 246 249 252 255 257 258 258 259 258 258 259 259 258 257 258 260 260 257 250 242 238 240 243 244 245 246 248 250 249 247 246 248 248 247 248 250 250 247 245 247
264 264 263 261 259 256 254 253 252 250 249 248 246 246 247 249 251 253 255 257 258 259 259 261 262 262 261 260 260 260 260 256 248 242 240 243 244 244 245 247 249 248 245 245 246 246 247 248 249 248 246 246
268 268 268 267 266 265 264 264 263 263 263 262 260 258 256 255 254 254 255 256 256 256 257 258 260 263 265 265 263 261 260 260 258 253 246 242 242 242 243 244 246 247 246 245 245 245 245 246 247 247 245 245
275 274 274 273 272 270 269 268 269 270 271 272 272 271 270 268 266 264 263 262 261 260 259 259 259 260 262 264 265 264 261 259 258 258 254 248 243 241 242 242 243 244 245 245 245 244 244 244 245 246 245 244
290 288 287 285 283 280 277 276 275 275 275 276 276 276 276 276 274 272 270 268 267 266 265 264 262 262 262 262 263 264 262 261 258 256 254 252 249 244 241 241 241 242 243 245 246 245 244 244 245 245 244 244
299 299 298 296 294 291 288 286 285 283 282 281 280 280 280 280 277 275 274 272 271 269 269 268 267 266 265 265 265 264 262 260 259 257 254 252 251 248 245 242 240 240 241 243 245 245 243 243 245 245 244 243
301 301 301 300 299 297 296 294 292 290 288 286 285 284 283 282 280 279 278 276 273 271 269 269 269 268 268 268 268 267 263 258 256 256 255 253 251 250 249 249 245 241 240 241 243 243 242 242 243 245 245 242
301 301 300 299 298 298 297 296 294 292 290 288 287 286 285 284 283 283 283 281 278 275 272 270 269 269 269 269 269 268 265 260 255 253 253 253 251 249 249 251 251 246 243 241 241 242 241 240 241 243 245 244
301 300 298 297 296 296 295 294 292 291 290 288 287 286 284 283 283 284 284 283 280 278 275 272 271 270 269 269 268 267 265 262 257 252 250 250 251 249 247 249 251 250 248 245 242 240 239 239 240 241 242 244
299 298 297 296 295 294 293 291 290 289 288 287 285 284 283 282 282 283 284 282 280 278 276 274 272 271 270 269 268 267 265 262 259 254 249 247 247 248 247 246 248 249 249 248 245 242 241 239 238 239 240 241
299 298 297 296 295 294 292 291 290 289 288 287 285 284 283 283 283 283 282 281 279 278 276 274 273 271 270 269 267 266 264 262 259 256 251 247 245 245 246 245 246 247 248 249 248 246 245 243 240 238 238 238
299 299 299 298 296 295 293 292 291 290 289 288 286 286 285 284 283 282 280 278 277 276 275 273 272 270 269 266 264 262 261 259 257 255 251 247 244 243 243 243 244 244 245 246 247 248 247 246 245 242 240 238
301 300 299 298 296 295 293 292 291 290 288 287 286 285 285 284 282 280 277 274 273 272 271 270 269 268 266 264 262 259 257 255 254 252 250 247 244 241 240 241 241 242 243 244 245 247 247 246 246 244 242 240
303 301 298 296 294 293 292 291 290 288 287 285 284 284 283 283 281 278 274 271 269 269 268 267 266 265 263 262 260 258 255 253 251 250 249 246 244 241 239 238 238 239 240 242 243 245 247 245 244 244 243 242
303 301 298 295 293 291 289 288 287 285 284 282 281 281 282 283 279 274 271 268 266 264 264 263 262 262 261 260 259 258 256 253 251 250 249 247 244 242 240 237 236 237 237 239 241 242 244 243 241 241 242 243
303 301 298 296 294 292 290 287 285 283 282 280 279 280 281 280 277 273 270 267 264 262 261 260 259 260 261 262 261 260 259 256 254 252 251 249 246 244 242 239 237 235 235 236 237 239 240 241 240 239 238 239
304 301 299 296 294 292 290 287 284 282 280 279 279 280 279 277 276 276 273 269 267 264 261 259 258 257 259 262 263 262 261 258 256 255 254 253 251 247 245 243 239 236 234 233 234 236 237 238 240 239 236 235
Height
3084 3085 3086 3087 3088 3088 3087 3088 3088 3088 3088 3088 3088 3088 3088 3089 3089 3090 3091 3092 3093 3093 3093 3094 3095 3096 3097 3097 3098 3098 3099 3099 3100 3100 3101 3101 3102 3104 3104 3105 3103 3101 3103 3104 3104 3107 3108 3109 3110 3112 3114 3114
3081 3081 3082 3083 3084 3084 3084 3085 3085 3086 3086 3086 3086 3086 3086 3086 3087 3087 3088 3089 3090 3091 3091 3091 3092 3094 3094 3095 3096 3096 3097 3098 3098 3098 3099 3099 3100 3101 3102 3103 3102 3100 3101 3102 3101 3104 3106 3107 3108 3109 3111 3112
3077 3077 3078 3079 3080 3080 3081 3081 3082 3083 3083 3083 3083 3083 3084 3084 3084 3085 3086 3087 3087 3088 3089 3089 3090 3091 3092 3092 3094 3094 3094 3096 3097 3096 3096 3097 3098 3099 3100 3101 3101 3099 3099 3099 3099 3101 3104 3105 3106 3107 3109 3110
3074 3074 3074 3075 3076 3076 3077 3077 3078 3079 3080 3080 3080 3080 3081 3081 3082 3082 3083 3084 3085 3085 3086 3086 3087 3088 3089 3090 3091 3091 3092 3093 3095 3095 3095 3095 3096 3097 3097 3098 3099 3097 3097 3097 3097 3097 3101 3103 3104 3105 3106 3107
3070 3070 3071 3071 3071 3072 3073 3073 3074 3075 3076 3076 3077 3077 3078 3078 3079 3079 3080 3081 3082 3083 3083 3084 3085 3085 3086 3087 3088 3088 3089 3090 3091 3093 3093 3093 3094 3094 3094 3095 3096 3096 3095 3095 3095 3095 3097 3100 3101 3102 3103 3104
3066 3066 3067 3067 3067 3068 3069 3069 3070 3071 3072 3073 3073 3073 3074 3075 3076 3077 3077 3078 3079 3080 3080 3081 3081 3082 3083 3084 3085 3085 3086 3086 3088 3089 3091 3091 3091 3091 3091 3092 3093 3094 3093 3092 3093 3093 3095 3098 3099 3099 3100 3101
3062 3062 3063 3063 3064 3064 3065 3065 3066 3067 3068 3069 3069 3069 3070 3071 3072 3073 3074 3075 3075 3076 3077 3078 3078 3079 3080 3081 3081 3082 3082 3083 3084 3085 3087 3088 3088 3088 3088 3089 3090 3091 3091 3090 3091 3092 3093 3095 3097 3097 3097 3099
3059 3059 3060 3060 3060 3060 3061 3061 3062 3062 3063 3064 3064 3065 3066 3066 3067 3068 3070 3070 3071 3073 3074 3074 3075 3075 3076 3077 3078 3078 3079 3080 3080 3081 3082 3084 3085 3085 3085 3086 3087 3088 3088 3087 3089 3091 3091 3093 3095 3095 3095 3095
3056 3056 3056 3057 3057 3057 3057 3057 3058 3058 3059 3059 3060 3060 3061 3062 3063 3063 3065 3066 3067 3068 3069 3070 3070 3071 3071 3072 3073 3074 3075 3076 3077 3078 3078 3079 3080 3081 3081 3082 3084 3084 3084 3084 3086 3089 3089 3090 3092 3093 3093 3093
3053 3053 3053 3054 3054 3054 3054 3054 3054 3055 3055 3055 3056 3056 3057 3057 3058 3059 3060 3061 3062 3062 3063 3065 3065 3066 3067 3068 3069 3070 3071 3072 3073 3074 3075 3075 3076 3077 3077 3078 3079 3080 3080 3081 3084 3086 3086 3087 3089 3091 3091 3091
3050 3050 3050 3050 3050 3051 3051 3051 3051 3051 3051 3052 3052 3052 3052 3053 3053 3054 3055 3056 3057 3057 3057 3058 3059 3060 3061 3063 3064 3065 3066 3067 3069 3070 3071 3071 3071 3072 3073 3074 3075 3076 3077 3077 3080 3082 3083 3084 3086 3088 3089 3089
3046 3046 3046 3046 3047 3047 3047 3048 3048 3049 3049 3049 3049 3049 3049 3049 3050 3050 3051 3051 3052 3052 3053 3053 3054 3055 3056 3057 3059 3061 3062 3063 3064 3065 3066 3067 3068 3068 3069 3070 3071 3072 3073 3074 3076 3078 3079 3080 3082 3084 3086 3086
3043 3042 3042 3042 3042 3043 3043 3044 3044 3045 3045 3045 3046 3046 3046 3046 3046 3046 3047 3047 3047 3048 3048 3049 3049 3050 3051 3052 3053 3055 3057 3058 3059 3061 3061 3063 3064 3064 3065 3066 3067 3068 3069 3071 3073 3075 3075 3076 3078 3080 3082 3083
3040 3039 3039 3039 3039 3039 3039 3039 3040 3040 3041 3041 3042 3042 3042 3042 3043 3043 3043 3043 3043 3044 3044 3045 3045 3045 3046 3047 3048 3050 3051 3053 3054 3056 3057 3058 3059 3060 3061 3062 3063 3064 3065 3067 3069 3071 3072 3073 3075 3077 3078 3079
3036 3036 3036 3036 3035 3035 3035 3035 3035 3035 3036 3036 3037 3037 3038 3038 3038 3039 3039 3039 3039 3040 3040 3041 3041 3042 3042 3042 3043 3044 3046 3047 3048 3050 3052 3053 3054 3055 3057 3058 3059 3059 3060 3062 3064 3067 3068 3070 3071 3073 3074 3075
3033 3033 3033 3032 3032 3031 3031 3031 3031 3031 3031 3031 3031 3032 3032 3032 3033 3033 3034 3034 3035 3035 3035 3035 3036 3037 3038 3039 3039 3039 3040 3041 3042 3044 3046 3048 3049 3050 3052 3053 3054 3055 3056 3057 3059 3062 3064 3066 3067 3069 3071 3072
3029 3029 3028 3028 3028 3028 3027 3027 3027 3026 3026 3026 3026 3026 3026 3026 3026 3027 3027 3028 3029 3029 3030 3030 3031 3032 3032 3034 3035 3036 3036 3036 3037 3038 3040 3042 3043 3044 3046 3048 3049 3050 3051 3052 3054 3057 3059 3061 3063 3065 3067 3068
3025 3024 3024 3023 3023 3022 3022 3022 3022 3021 3021 3021 3020 3020 3020 3019 3019 3019 3019 3020 3020 3021 3022 3024 3025 3026 3027 3028 3029 3031 3032 3032 3032 3032 3033 3035 3037 3039 3040 3041 3043 3045 3046 3047 3049 3052 3054 3056 3058 3060 3062 3064
3017 3017 3016 3016 3016 3015 3015 3015 3015 3015 3015 3015 3014 3014 3014 3014 3013 3013 3013 3013 3013 3013 3014 3015 3017 3018 3019 3021 3023 3024 3026 3027 3027 3027 3028 3029 3030 3033 3034 3035 3037 3038 3040 3042 3044 3046 3049 3051 3053 3055 3058 3060
3008 3008 3007 3007 3006 3006 3006 3006 3006 3006 3006 3007 3007 3007 3007 3007 3006 3007 3006 3006 3006 3006 3006 3007 3008 3010 3011 3012 3014 3017 3019 3020 3021 3022 3023 3023 3024 3026 3027 3029 3031 3033 3035 3037 3039 3041 3043 3046 3048 3049 3052 3055
3003 3002 3000 2999 2998 2997 2997 2996 2996 2997 2997 2998 2998 2998 2998 2998 2998 2999 2999 2999 2999 2999 2999 3000 3001 3002 3003 3003 3005 3007 3010 3012 3014 3015 3017 3018 3018 3019 3020 3022 3024 3027 3029 3031 3033 3035 3037 3040 3042 3044 3046 3049
2997 2996 2995 2994 2993 2991 2990 2989 2988 2988 2988 2989 2989 2990 2990 2989 2989 2990 2990 2990 2990 2990 2990 2991 2992 2994 2995 2995 2996 2998 3000 3003 3006 3008 3009 3011 3012 3013 3014 3015 3017 3020 3022 3024 3026 3028 3031 3034 3036 3038 3041 3044
2990 2989 2989 2988 2988 2987 2985 2983 2982 2982 2981 2981 2981 2982 2982 2981 2981 2981 2980 2980 2980 2980 2981 2982 2983 2984 2986 2987 2987 2989 2991 2993 2996 2998 3001 3003 3005 3007 3008 3009 3011 3012 3014 3017 3019 3021 3024 3027 3030 3032 3035 3037
2984 2983 2982 2982 2981 2980 2979 2978 2977 2977 2975 2974 2974 2974 2974 2973 2973 2973 2972 2971 2971 2971 2972 2973 2974 2975 2976 2977 2978 2979 2982 2983 2985 2988 2991 2994 2996 2999 3002 3003 3004 3006 3007 3009 3011 3014 3016 3019 3023 3026 3028 3030
2977 2975 2974 2973 2972 2971 2970 2969 2969 2967 2966 2965 2965 2964 2964 2964 2964 2963 2963 2962 2961 2962 2962 2963 2964 2965 2966 2967 2968 2969 2971 2973 2975 2978 2981 2984 2987 2990 2994 2996 2998 2998 3000 3002 3004 3007 3009 3012 3015 3018 3020 3022
2970 2968 2966 2963 2962 2960 2959 2959 2957 2956 2955 2954 2954 2954 2954 2954 2954 2954 2953 2953 2952 2952 2952 2953 2953 2955 2956 2957 2958 2960 2961 2963 2965 2968 2971 2974 2977 2981 2984 2988 2991 2992 2993 2995 2997 3000 3002 3003 3006 3009 3012 3016
2962 2960 2959 2956 2953 2950 2948 2948 2947 2945 2944 2943 2943 2943 2944 2944 2944 2944 2944 2944 2944 2943 2944 2944 2944 2945 2946 2947 2948 2950 2952 2954 2956 2958 2960 2963 2966 2970 2973 2978 2982 2984 2986 2988 2991 2993 2994 2996 2999 3001 3004 3008
2953 2951 2950 2948 2945 2943 2940 2939 2938 2936 2935 2934 2934 2934 2936 2936 2936 2935 2936 2936 2936 2936 2936 2936 2937 2937 2938 2938 2939 2940 2942 2945 2947 2948 2950 2952 2955 2958 2962 2967 2971 2975 2978 2980 2984 2985 2986 2990 2992 2993 2997 3003
2944 2942 2941 2939 2937 2935 2934 2932 2931 2930 2928 2927 2926 2926 2928 2930 2929 2928 2928 2928 2929 2929 2929 2929 2930 2930 2930 2931 2931 2932 2934 2936 2938 2940 2941 2943 2945 2948 2951 2956 2960 2964 2968 2972 2975 2977 2979 2983 2984 2986 2993 2997
2938 2934 2932 2930 2927 2926 2925 2924 2924 2924 2922 2921 2920 2920 2921 2923 2923 2922 2921 2921 2922 2922 2923 2923 2924 2924 2924 2925 2925 2927 2928 2930 2932 2933 2934 2935 2937 2939 2942 2945 2948 2953 2958 2962 2965 2968 2971 2975 2976 2981 2986 2988
2932 2928 2925 2923 2921 2919 2917 2915 2915 2916 2915 2914 2913 2913 2914 2916 2916 2916 2915 2915 2915 2915 2916 2917 2918 2918 2919 2919 2920 2921 2923 2924 2926 2927 2928 2929 2930 2932 2934 2936 2938 2943 2948 2951 2955 2959 2963 2967 2969 2974 2978 2980